7 * 24
多渠道服务支持
GEESAT-1 05 是一颗由韩国开发的地球观测卫星,主要用于环境监测和地理信息数据采集。该卫星搭载高分辨率光学传感器,能够提供清晰的地表图像,支持农业、城市规划和灾害管理等多个领域。作为GEESAT-1系列的一部分,GEESAT-1 05 在提升国家空间技术能力方面发挥了重要作用,并为相关科研和应用提供了可靠的数据支持。
中国
(CN)
| 数据来源 | 国际轨道数据 |
| 星历时间: | 2025-10-28T21:29:27+0800 17小时前 查看轨道信息 |
| 半长轴: | 6951.608km |
| 偏心率: | 0.0003539 |
| 轨道倾角: | 49.986° |
| 近地点辐角 | 17.225° |
| 升交点赤经 | 201.127° |
| 平近点角 | 342.881° |
| 近地点: | 571.012km |
| 远地点: | 575.934km |
| 周期: | 96.136分钟 |
| 每日圈数: | 14.978728 |